Location: Devore Heights
(34.2372°N, 117.4156°W)
Time: 00:14:36
(UTC+00:00)

Transit 4A - Pass Details

Date: 13 September 2024
Orbit: 864 x 978 km, 66.8° (Epoch: 13 October)

Event Time Altitude Azimuth Distance (km) Brightness Sun altitude
Rises 22:11:24 0° 305° (NW) 3,637 11.2 44.1°
Reaches altitude 10° 22:17:22 10° 262° (W) 2,709 11.3 43.1°
Maximum altitude 22:17:40 10° 259° (W) 2,707 11.3 43.0°
Drops below altitude 10° 22:17:56 10° 257° (WSW) 2,709 11.3 43.0°
Sets 22:24:01 0° 213° (SSW) 3,661 11.7 41.9°
